Location: ????
(30.1475°N, 31.1342°E)
Time: 05:28:51
(UTC+00:00)

COSMOS 2251 DEB - Pass Details

Date: 27 May 2024
Orbit: 760 x 785 km, 73.9° (Epoch: 11 June)

Event Time Altitude Azimuth Distance (km) Brightness Sun altitude
Rises 02:19:19 0° 357° (N) 3,256 ? -7.8°
Reaches altitude 10° 02:22:04 10° 10° (N) 2,321 ? -7.3°
Maximum altitude 02:26:31 27° 67° (ENE) 1,441 ? -6.5°
Drops below altitude 10° 02:30:54 10° 125° (SE) 2,297 ? -5.6°
Sets 02:33:35 0° 137° (SE) 3,216 ? -5.1°
